COSMOS 1375 DEB, 17105

Orbit data source: Space-Track

COSMOS 1375 DEB, 17105 is space debris in LEO originally from a launch on Sun, 06 Jun 1982 UTC launched from the Plesetsk Missile And Space Complex (PKMTR). Debris objects in space refer to the collection of defunct objects orbiting the Earth. Examples of debris include non-operational satellites, rocket bodies, and fragments generated from explosions, collisions, or faulty payload assembly.

Loading next visibility...
Identifier
17105, 1982-055AG
Orbit
LEO
Country
Flag of CISCIS
Related business
Manufacturer
Unknown
Mission
Spacecraft
Bus & Motor
Unknown
Mass
Unknown
Launch date (UTC)
1982-06-06 (44 years ago)
Launch vehicle
Unknown
Launch site
Plesetsk Missile And Space Complex (PKMTR)
Object type
Payload
Rocket body
Debris
Shape & HBR
Unknown shape, 0.1 m
Radar Cross Section
Medium (>0.1 m² and <1 m²)

Expand to show TLE details & history
Last TLE update: 2 days ago

TLE from 2 days ago
0 COSMOS 1375 DEB
1 17105U 82055AG  26171.37514104  .00000106  00000-0  19391-3 0  9999
2 17105  65.8291 210.7086 0021796  33.1060 338.1512 13.75485799 36818
Epoch: 2026-06-20T09:00Z
TLE epoch observation values (Epoch: 2026-06-20T09:00:12.185Z)
Latitude
10.13769°
Longitude
171.64605°
Altitude
966.303 km
Speed
7.377 km/s
True Right ascension
14h 21m 08s
True Declination
10° 04' 48"
Sunlit
Object was in daylight at epoch
Visualization orbit readout
Latitude
Unknown
Longitude
Unknown
Altitude
Unknown
Speed
Unknown
Apparent Right ascension
Unknown
Apparent Declination
Unknown
Sunlit
N/A
Visualization observer readout
Local Sidereal Time
00:39:27
Azimuth
Unknown
Elevation
Unknown
Doppler factor
Unknown
Orbital elements
Apogee altitude
994.493 km
Perigee altitude
962.425 km
Semi-major axis
7,356.596 km
Eccentricity
0.00218
Inclination
65.8291°
RAAN
210.7086°
Arg. of periapsis
33.106°
True anomaly
338.05801°
Mean anomaly
338.1512°
Eccentric anomaly
338.10463°
Mean motion
3.43976 °/min
Orbital period
104.66 mins
BSTAR
0.00019391
Loading maneuver chart data...
Computing Atmospheric mass density...
Loading historical data...
Loading historical data...
Loading historical data...
Loading historical data...
Loading historical data...
Loading historical data...
Loading historical data...

Documentation

Showing up to 5 results
|